TimeCST,TemperatureF,Dew PointF,Humidity,Sea Level PressureIn,VisibilityMPH,Wind Direction,Wind SpeedMPH,Gust SpeedMPH,PrecipitationIn,Events,Conditions,WindDirDegrees,DateUTC
12:53 AM,66.9,64.0,90,30.15,10.0,SE,8.1,-,N/A,,Clear,140,2012-12-04 06:53:00
1:53 AM,68.0,64.0,87,30.15,10.0,SE,6.9,-,N/A,,Partly Cloudy,130,2012-12-04 07:53:00
2:53 AM,68.0,64.9,90,30.14,10.0,SE,6.9,-,N/A,,Partly Cloudy,140,2012-12-04 08:53:00
3:53 AM,68.0,64.9,90,30.14,10.0,SSE,6.9,-,N/A,,Mostly Cloudy,150,2012-12-04 09:53:00
4:53 AM,68.0,64.9,90,30.14,10.0,SE,6.9,-,N/A,,Clear,140,2012-12-04 10:53:00
5:53 AM,68.0,64.9,90,30.15,10.0,SE,6.9,-,N/A,,Scattered Clouds,140,2012-12-04 11:53:00
6:53 AM,68.0,64.9,90,30.17,10.0,SE,8.1,-,N/A,,Mostly Cloudy,140,2012-12-04 12:53:00
7:53 AM,69.1,64.9,87,30.19,10.0,SSE,8.1,-,N/A,,Scattered Clouds,150,2012-12-04 13:53:00
8:53 AM,73.0,66.0,79,30.20,10.0,SSE,10.4,-,N/A,,Clear,150,2012-12-04 14:53:00
9:53 AM,73.9,64.9,73,30.22,10.0,SSE,13.8,19.6,N/A,,Mostly Cloudy,150,2012-12-04 15:53:00
10:53 AM,75.9,64.0,67,30.21,10.0,South,15.0,-,N/A,,Mostly Cloudy,170,2012-12-04 16:53:00
11:53 AM,77.0,64.0,64,30.18,10.0,South,12.7,-,N/A,,Overcast,170,2012-12-04 17:53:00
12:53 PM,78.1,64.0,62,30.16,10.0,SSE,10.4,-,N/A,,Scattered Clouds,160,2012-12-04 18:53:00
1:53 PM,75.9,64.0,67,30.14,10.0,SE,8.1,-,N/A,,Overcast,130,2012-12-04 19:53:00
2:53 PM,75.0,63.0,66,30.13,10.0,SE,9.2,-,N/A,,Overcast,140,2012-12-04 20:53:00
3:29 PM,66.2,62.6,88,30.13,4.0,NW,31.1,35.7,0.02,Rain,Rain,310,2012-12-04 21:29:00
3:43 PM,64.4,60.8,88,30.16,1.8,WNW,17.3,27.6,0.18,Rain,Heavy Rain,300,2012-12-04 21:43:00
3:53 PM,64.9,62.1,90,30.14,0.5,West,15.0,-,0.72,Fog-Rain,Heavy Rain,270,2012-12-04 21:53:00
4:00 PM,66.2,62.6,88,30.16,0.5,NW,10.4,-,0.42,Fog-Rain,Heavy Rain,320,2012-12-04 22:00:00
4:51 PM,66.2,64.4,94,30.17,3.0,North,4.6,-,1.11,Rain,Rain,10,2012-12-04 22:51:00
4:53 PM,66.0,64.0,93,30.15,3.0,North,5.8,-,1.12,Rain,Rain,10,2012-12-04 22:53:00
5:51 PM,64.4,62.6,94,30.16,1.8,ENE,9.2,-,0.17,Rain,Heavy Rain,70,2012-12-04 23:51:00
5:53 PM,64.9,63.0,93,30.15,1.8,ENE,8.1,-,0.18,Rain,Heavy Rain,70,2012-12-04 23:53:00
5:59 PM,64.4,64.4,100,30.17,3.0,East,9.2,-,0.00,Rain,Light Rain,80,2012-12-04 23:59:00
6:53 PM,66.0,64.0,93,30.15,10.0,ENE,8.1,-,0.07,,Overcast,70,2012-12-05 00:53:00
7:53 PM,64.9,63.0,93,30.16,10.0,ENE,8.1,-,N/A,,Overcast,60,2012-12-05 01:53:00
8:53 PM,64.9,63.0,93,30.15,10.0,East,4.6,-,N/A,,Mostly Cloudy,80,2012-12-05 02:53:00
9:53 PM,66.9,64.0,90,30.14,10.0,ESE,8.1,-,N/A,,Overcast,120,2012-12-05 03:53:00
10:53 PM,66.0,63.0,90,30.13,10.0,SE,10.4,-,0.02,Rain,Light Rain,130,2012-12-05 04:53:00
11:27 PM,66.2,64.4,94,30.15,2.0,SE,6.9,-,0.11,Rain,Rain,130,2012-12-05 05:27:00
11:37 PM,66.2,64.4,94,30.15,5.0,ESE,10.4,-,0.12,Rain,Light Rain,120,2012-12-05 05:37:00
11:53 PM,66.0,64.0,93,30.12,10.0,ESE,11.5,-,0.12,Rain,Light Rain,120,2012-12-05 05:53:00